Regional Weather Roundup
Issued by NWS

Home | Current Version | Previous Version | Graphics & Text | Print | Product List | Glossary On
Versions: 1 2 3 4 5 6 7 8 9 10 11 12 13 14 15 16 17 18 19 20 21 22 23 24 25 26 27 28 29 30 31 32 33 34 35 36 37 38 39 40 41 42 43 44 45 46 47 48 49 50
000
ASUS45 KBOU 220510
RWRCO

WEATHER ROUNDUP FOR COLORADO
NATIONAL WEATHER SERVICE DENVER/BOULDER CO
1100 PM MDT SAT APR 21 2018

NOTE: "FAIR" INDICATES FEW OR NO CLOUDS BELOW 12000 FEET WITH NO
SIGNIFICANT WEATHER AND/OR OBSTRUCTIONS TO VISIBILITY.

COZ001>005-013-030-031-220600-
...NORTHWEST COLORADO...

CITY           SKY/WX    TMP DP  RH WIND       PRES   REMARKS
CRAIG          FAIR      41  35  79 E6        30.20S
HAYDEN         FAIR      39  34  82 SE8       30.23S
MEEKER         FAIR      40  34  79 NE7       30.22R
RANGELY        FAIR      45  38  77 E5        30.16R
RABBIT EARS PA MOCLDY   N/A N/A N/A W7        30.30R
STEAMBOAT SPGS FAIR      34  33  97 CALM      30.23S
WALDEN         FAIR      30  27  86 SE7       30.24R WCI  23
$$

COZ006>008-011-220600-
...WEST CENTRAL VALLEYS...

CITY           SKY/WX    TMP DP  RH WIND       PRES   REMARKS
GRAND JUNCTION FAIR      52  35  52 E12       30.17R
MONTROSE       FAIR      45  33  63 SE9       30.23F
EAGLE          FAIR      35  33  92 E3        30.27S
RIFLE          FAIR      42  36  79 CALM      30.22R
DELTA          FAIR      48  37  65 E5        30.22S
NUCLA          FAIR      46  30  53 E12       30.25S
$$

COZ017>023-064>068-220600-
...SOUTHWEST COLORADO...

CITY           SKY/WX    TMP DP  RH WIND       PRES   REMARKS
DURANGO        FAIR      47  18  31 N6        30.17R
CORTEZ         FAIR      40  24  53 VRB3      30.21R
PAGOSA SPRINGS FAIR      46  14  27 N6        30.24S
TELLURIDE      FAIR      35  26  71 CALM      30.33F
WOLF CREEK PAS FAIR      23  18  80 N12       30.40R WCI  12
$$

COZ009-010-012-014-032>034-037-058>063-220600-
...CENTRAL COLORADO...

CITY           SKY/WX    TMP DP  RH WIND       PRES   REMARKS
ASPEN          FAIR      33  29  85 SW6       30.26S WCI  28
BUENA VISTA    FAIR      36  27  71 CALM      30.23S
COPPER MTN     NOT AVBL
BERTHOUD PASS  CLOUDY    23  12  63 NW25G37   30.30S WCI   7
COTTONWOOD PAS FAIR      37  27  65 NW14G25   30.27S
GUNNISON       FAIR      34  26  72 N5        30.27S WCI  30
GRANBY         CLOUDY    34  32  93 CALM      30.26S
KREMMLING      FAIR      37  34  87 CALM      30.25S
LEADVILLE      FAIR      24  22  91 N3        30.27F
MONARCH PASS     N/A     23  19  86 W10       30.44F WCI  12
SALIDA         FAIR      35  32  87 SE6       30.31F WCI  30
SUNLIGHT       FAIR      30  27  86 W9        30.37F WCI  22
WILKERSON PASS FAIR      27  21  80 NW14G23   30.30F WCI  15
$$

COZ069>075-220600-
...SAN LUIS VALLEY/SANGRE DE CRISTO MOUNTAINS...

CITY           SKY/WX    TMP DP  RH WIND       PRES   REMARKS
ALAMOSA        FAIR      44  25  47 N15       30.22R
DEL NORTE      FAIR      39  22  51 W14       30.26R
LA VETA PASS   FAIR      32  27  80 W13G18    30.38S WCI  22
SAGUACHE       NOT AVBL
$$

COZ035-036-038>040-220600-
...NORTHERN COLORADO FRONT RANGE...

CITY           SKY/WX    TMP DP  RH WIND       PRES   REMARKS
DENVER INTL AP FAIR      34  32  92 S8        30.18F WCI  27
AURORA         MOCLDY    35  35  97 SE7       30.18F WCI  29
FRONT RANGE AP FAIR      37  35  93 S9        30.19F
ERIE MUNI ARPT FAIR      37  35  90 CALM      30.24S
BOULDER MUN AP FAIR      36  34  93 W5        30.18S
CENTENNIAL     MOCLDY    34  32  92 S7        30.17F WCI  28
BROOMFIELD     MOCLDY    37  34  87 CALM      30.19R
FORT COLLINS   FAIR      35  33  92 SE6       30.19S WCI  30
LONGMONT       FAIR      35  32  88 W5        30.21S WCI  31
$$

COZ041-046-047-076>085-087-088-220600-
...PIKES PEAK/PALMER DIVIDE AND SOUTHERN FOOTHILLS...

CITY           SKY/WX    TMP DP  RH WIND       PRES   REMARKS
COLO. SPRINGS  CLOUDY    38  32  79 SE8       30.21F
A. F. ACADEMY  CLOUDY    37  31  81 S8        30.20S
SCHRIEVER AFB  NOT AVBL
CHEYENNE MTN   CLOUDY    33  32  98 S6        30.16R WCI  27
ELLICOTT         N/A    N/A N/A N/A SE5       30.21S
FALCON         CLOUDY    34  32  92 CALM      30.23S
FORT CARSON    CLOUDY    39  34  83 SE8       30.20S
LIMON          CLOUDY    36  33  89 S9        30.20F
MONUMENT HILL  CLOUDY    32  32 100 S9        30.21S WCI  24
CANON CITY     FAIR      39  36  87 CALM      30.20F
WALSENBURG     NOT AVBL
TRINIDAD       CLOUDY    40  36  86 SE3       30.22F
$$

COZ042>045-048>051-090-091-220600-
...NORTHEAST COLORADO...

CITY           SKY/WX    TMP DP  RH WIND       PRES   REMARKS
GREELEY ARPT   MOCLDY    39  37  92 SW3       30.19F
AKRON          FAIR      34  34 100 SE8       30.19F WCI  27
BURLINGTON     CLOUDY    38  37  97 E7        30.22F
WRAY           CLOUDY    39  39 100 SE7       30.24S
YUMA           CLOUDY    36  36 100 E10       30.21S
STERLING       NOT AVBL
HOLYOKE        CLOUDY    41  37  87 SE5       30.24R
FORT MORGAN    MOCLDY    37  35  91 S6        30.19F
$$

COZ086-089-092>099-220600-
...SOUTHEAST COLORADO...

CITY           SKY/WX    TMP DP  RH WIND       PRES   REMARKS
PUEBLO         CLOUDY    45  35  68 SE8       30.21F
LA JUNTA       CLOUDY    42  40  92 E7        30.22F
LAMAR          CLOUDY    42  37  82 E6        30.21F
SPRINGFIELD      N/A     39  37  92 NE5       30.21F
$$



USA.gov is the U.S. government's official web portal to all federal, state and local government web resources and services.